Tracking 30157 objects as of 13-Feb-2025
HD Live streaming from Space Station
objects crossing your sky now

STARLINK-4347

Track STARLINK-4347 now!
10-day predictions
STARLINK-4347 is classified as:


NORAD ID: 53076
Int'l Code: 2022-077AK
Perigee: 569.6 km
Apogee: 570.7 km
Inclination: 97.7 °
Period: 95.9 minutes
Semi major axis: 6941 km
RCS: Unknown
Launch date: July 11, 2022
Source: United States (US)
Launch site: AIR FORCE WESTERN TEST RANGE (AFWTR)
Your satellite tracking list
Your tracking list is empty




NASA's NSSDC Master Catalog

Two Line Element Set (TLE):
1 53076U 22077AK  25043.41378626  .00000451  00000-0  39676-4 0  9995
2 53076  97.6543 226.8156 0000724 228.2172 131.8991 15.01259995142368
Source of the keplerian elements: AFSPC